Location: Paralde Spring
(38.5794°N, 119.0140°W)
Time: 23:18:48
(UTC+00:00)

Cosmos 1666 - Pass Details

Date: 18 September 2020
Orbit: 496 x 521 km, 82.5° (Epoch: 20 October)

Event Time Altitude Azimuth Distance (km) Brightness Sun altitude
Rises 12:49:54 0° 347° (NNW) 2,640 6.3 -10.7°
Reaches altitude 10° 12:52:05 10° 342° (NNW) 1,745 5.3 -10.3°
Maximum altitude 12:55:47 50° 266° (W) 656 2.8 -9.6°
Drops below altitude 10° 12:59:26 10° 191° (S) 1,716 5.1 -8.9°
Sets 13:01:34 0° 186° (S) 2,592 6.1 -8.5°
